This demonstration page uses our WeatherBlox Daily Observations layout. Learn more.

Left ArrowRight Arrow

Hourly Observations for April 1, 2019

Temp ( °F °C ) Dew Point ( °F °C ) Humidity (%) Winds ( mph kmh ) Pressure ( in mb ) Visibility ( mi km ) Precip ( " mm )
12:53 am 00:53 Clear 43 6.1 27 -2.8 53 53 N 6 9 30.17 1022 10 16 0.00 0.00
1:53 am 01:53 Clear 42 5.6 26 -3.3 53 53 NNW 6 9 30.19 1022 10 16 0.00 0.00
2:53 am 02:53 Clear 41 5 26 -3.3 55 55 N 7 11 30.17 1022 10 16 0.00 0.00
3:53 am 03:53 Clear 39 3.9 25 -3.9 57 57 N 3 6 30.18 1022 10 16 0.00 0.00
4:53 am 04:53 Clear 37 2.8 25 -3.9 62 62 N 5 7 30.16 1022 10 16 0.00 0.00
5:53 am 05:53 Clear 34 1.1 27 -2.8 76 76 Calm 30.19 1022 10 16 0.00 0.00
6:53 am 06:53 Clear 33 0.6 29 -1.7 85 85 Calm 30.21 1023 10 16 0.00 0.00
7:53 am 07:53 Sunny 32 0 29 -1.7 88 88 Calm 30.25 1024 10 16 0.00 0.00
8:53 am 08:53 Sunny 37 2.8 29 -1.7 73 73 Calm 30.26 1025 10 16 0.00 0.00
9:53 am 09:53 Sunny 43 6.1 26 -3.3 51 51 NE 6 9 30.27 1025 10 16 0.00 0.00
10:53 am 10:53 Sunny 49 9.4 22 -5.6 35 35 E 12 19 30.27 1025 10 16 0.00 0.00
11:53 am 11:53 Sunny 52 11.1 20 -6.7 28 28 E 13 20 30.27 1025 10 16 0.00 0.00
12:53 pm 12:53 Sunny 53 11.7 19 -7.2 26 26 ESE 8 13 30.24 1024 10 16 0.00 0.00
1:53 pm 13:53 Sunny 56 13.3 21 -6.1 26 26 VRB 6 9 30.21 1023 10 16 0.00 0.00
2:53 pm 14:53 Sunny 59 15 21 -6.1 23 23 SE 9 15 30.18 1022 10 16 0.00 0.00
3:53 pm 15:53 Sunny 60 15.6 21 -6.1 22 22 E 13 20 30.16 1021 10 16 0.00 0.00
4:53 pm 16:53 Sunny 61 16.1 22 -5.6 22 22 VRB 7 11 30.14 1021 10 16 0.00 0.00
5:53 pm 17:53 Sunny 62 16.7 22 -5.6 21 21 ESE 8 13 30.14 1021 10 16 0.00 0.00
6:53 pm 18:53 Sunny 60 15.6 21 -6.1 22 22 E 8 13 30.13 1020 10 16 0.00 0.00
7:53 pm 19:53 Sunny 59 15 22 -5.6 24 24 ESE 6 9 30.13 1020 10 16 0.00 0.00
8:53 pm 20:53 Clear 56 13.3 23 -5 28 28 ESE 3 6 30.14 1021 10 16 0.00 0.00
9:53 pm 21:53 Clear 54 12.2 23 -5 30 30 E 6 9 30.14 1021 10 16 0.00 0.00
10:53 pm 22:53 Clear 54 12.2 24 -4.4 31 31 E 6 9 30.16 1021 10 16 0.00 0.00
11:53 pm 23:53 Clear 54 12.2 23 -5 30 30 E 9 15 30.15 1021 10 16 0.00 0.00

Powered by AerisWeather